Time,TemperatureF,DewpointF,PressureIn,WindDirection,WindDirectionDegrees,WindSpeedMPH,WindSpeedGustMPH,Humidity,HourlyPrecipIn,Conditions,Clouds,dailyrainin,SoftwareType,DateUTC
2013-03-23 00:00:00,34.7,32.6,29.85,SE,135,0.4,0.4,92,0.00,,,0.00,WUHU216HW,2013-03-23 05:00:00,
2013-03-23 00:05:00,34.7,32.6,29.85,SE,135,0.0,0.4,92,0.00,,,0.00,WUHU216HW,2013-03-23 05:05:00,
2013-03-23 00:10:00,34.7,32.6,29.85,ESE,113,0.0,0.4,92,0.00,,,0.00,WUHU216HW,2013-03-23 05:10:00,
2013-03-23 00:15:00,34.7,32.6,29.84,ESE,113,0.4,0.4,92,0.00,,,0.00,WUHU216HW,2013-03-23 05:15:00,
2013-03-23 00:20:00,34.7,32.6,29.85,East,90,0.2,0.4,92,0.00,,,0.00,WUHU216HW,2013-03-23 05:20:00,
2013-03-23 00:25:00,34.7,32.6,29.85,ESE,113,0.1,0.4,92,0.00,,,0.00,WUHU216HW,2013-03-23 05:25:00,
2013-03-23 00:30:00,34.7,32.6,29.85,ESE,113,0.6,0.7,92,0.00,,,0.00,WUHU216HW,2013-03-23 05:30:00,
2013-03-23 00:35:00,34.7,32.6,29.85,ESE,113,0.3,0.7,92,0.00,,,0.00,WUHU216HW,2013-03-23 05:35:00,
2013-03-23 00:40:00,34.7,32.6,29.85,East,90,1.1,1.1,92,0.00,,,0.00,WUHU216HW,2013-03-23 05:40:00,
2013-03-23 00:45:00,34.7,32.6,29.85,ESE,113,1.1,1.1,92,0.00,,,0.00,WUHU216HW,2013-03-23 05:45:00,
2013-03-23 00:50:00,34.7,32.6,29.85,ESE,113,1.1,1.1,92,0.00,,,0.00,WUHU216HW,2013-03-23 05:50:00,
2013-03-23 00:55:00,34.7,32.6,29.85,ESE,113,0.4,1.8,92,0.00,,,0.00,WUHU216HW,2013-03-23 05:55:00,
2013-03-23 01:00:00,34.7,32.6,29.85,ESE,113,0.2,1.8,92,0.00,,,0.00,WUHU216HW,2013-03-23 06:00:00,
2013-03-23 01:05:00,34.9,32.8,29.84,East,90,0.1,0.4,92,0.00,,,0.00,WUHU216HW,2013-03-23 06:05:00,
2013-03-23 01:10:00,34.9,32.8,29.83,SE,135,0.8,1.3,92,0.00,,,0.00,WUHU216HW,2013-03-23 06:10:00,
2013-03-23 01:15:00,34.9,32.8,29.83,SE,128,0.3,1.3,92,0.00,,,0.00,WUHU216HW,2013-03-23 06:15:00,
2013-03-23 01:20:00,34.7,32.6,29.83,ESE,113,2.0,2.0,92,0.00,,,0.00,WUHU216HW,2013-03-23 06:20:00,
2013-03-23 01:25:00,34.7,32.6,29.83,ESE,113,0.4,2.0,92,0.00,,,0.00,WUHU216HW,2013-03-23 06:25:00,
2013-03-23 01:30:00,34.7,32.6,29.83,ESE,113,0.4,1.8,92,0.00,,,0.00,WUHU216HW,2013-03-23 06:30:00,
2013-03-23 01:35:00,34.7,32.6,29.82,ESE,113,1.5,1.8,92,0.00,,,0.00,WUHU216HW,2013-03-23 06:35:00,
2013-03-23 01:40:00,34.7,32.6,29.83,SE,135,0.0,1.8,92,0.00,,,0.00,WUHU216HW,2013-03-23 06:40:00,
2013-03-23 01:45:00,34.7,32.6,29.83,East,90,0.9,1.8,92,0.00,,,0.00,WUHU216HW,2013-03-23 06:45:00,
2013-03-23 01:50:00,34.7,32.6,29.83,ESE,113,0.7,2.0,92,0.00,,,0.00,WUHU216HW,2013-03-23 06:50:00,
2013-03-23 01:55:00,34.6,32.4,29.83,ESE,113,0.2,2.0,92,0.00,,,0.00,WUHU216HW,2013-03-23 06:55:00,
2013-03-23 02:00:00,34.7,32.6,29.83,ENE,68,0.3,1.1,92,0.00,,,0.00,WUHU216HW,2013-03-23 07:00:00,
2013-03-23 02:05:00,34.7,32.6,29.84,East,90,0.1,0.7,92,0.00,,,0.00,WUHU216HW,2013-03-23 07:05:00,
2013-03-23 02:10:00,34.6,32.4,29.83,ESE,113,0.4,0.4,92,0.00,,,0.00,WUHU216HW,2013-03-23 07:10:00,
2013-03-23 02:15:00,34.6,32.4,29.83,ESE,113,0.0,0.4,92,0.00,,,0.00,WUHU216HW,2013-03-23 07:15:00,
2013-03-23 02:20:00,34.6,32.4,29.83,North,0,0.0,0.2,92,0.00,,,0.00,WUHU216HW,2013-03-23 07:20:00,
2013-03-23 02:25:00,34.6,32.4,29.83,NNE,23,0.0,2.0,92,0.00,,,0.00,WUHU216HW,2013-03-23 07:25:00,
2013-03-23 02:30:00,34.6,32.4,29.83,NNE,23,0.2,2.0,92,0.00,,,0.00,WUHU216HW,2013-03-23 07:30:00,
2013-03-23 02:35:00,34.6,32.4,29.82,ENE,68,0.0,0.4,92,0.00,,,0.00,WUHU216HW,2013-03-23 07:35:00,
2013-03-23 02:40:00,34.6,32.4,29.82,NNE,23,0.4,0.4,92,0.00,,,0.00,WUHU216HW,2013-03-23 07:40:00,
2013-03-23 02:45:00,34.6,32.4,29.81,NNE,23,0.0,0.4,92,0.00,,,0.00,WUHU216HW,2013-03-23 07:45:00,
2013-03-23 02:50:00,34.6,32.4,29.81,NNE,23,0.2,0.4,92,0.00,,,0.00,WUHU216HW,2013-03-23 07:50:00,
2013-03-23 02:55:00,34.6,32.4,29.81,North,0,0.2,0.4,92,0.00,,,0.00,WUHU216HW,2013-03-23 07:55:00,
2013-03-23 03:00:00,34.6,32.4,29.81,North,0,0.0,0.4,92,0.00,,,0.00,WUHU216HW,2013-03-23 08:00:00,
2013-03-23 03:05:00,34.6,32.4,29.81,North,0,0.0,0.4,92,0.00,,,0.00,WUHU216HW,2013-03-23 08:05:00,
2013-03-23 03:10:00,34.6,32.4,29.81,NW,315,0.2,0.4,92,0.00,,,0.00,WUHU216HW,2013-03-23 08:10:00,
2013-03-23 03:15:00,34.6,32.4,29.81,NNE,23,0.2,0.4,92,0.00,,,0.00,WUHU216HW,2013-03-23 08:15:00,
2013-03-23 03:20:00,34.6,32.4,29.81,North,0,0.0,0.2,92,0.00,,,0.00,WUHU216HW,2013-03-23 08:20:00,
2013-03-23 03:25:00,34.6,32.4,29.80,North,0,1.1,1.1,92,0.00,,,0.00,WUHU216HW,2013-03-23 08:25:00,
2013-03-23 03:30:00,34.6,32.4,29.80,North,0,0.4,1.1,92,0.00,,,0.00,WUHU216HW,2013-03-23 08:30:00,
2013-03-23 03:35:00,34.6,32.4,29.80,North,0,0.7,0.7,92,0.00,,,0.00,WUHU216HW,2013-03-23 08:35:00,
2013-03-23 03:40:00,34.6,32.4,29.80,North,0,0.3,0.7,92,0.00,,,0.00,WUHU216HW,2013-03-23 08:40:00,
2013-03-23 03:45:00,34.4,32.2,29.80,North,0,0.4,0.4,92,0.00,,,0.00,WUHU216HW,2013-03-23 08:45:00,
2013-03-23 03:50:00,34.6,32.4,29.80,NNE,14,0.6,2.9,92,0.00,,,0.00,WUHU216HW,2013-03-23 08:50:00,
2013-03-23 03:55:00,34.6,32.4,29.80,North,0,0.0,2.9,92,0.00,,,0.00,WUHU216HW,2013-03-23 08:55:00,
2013-03-23 04:00:00,34.6,32.4,29.80,North,0,0.2,0.4,92,0.00,,,0.00,WUHU216HW,2013-03-23 09:00:00,
2013-03-23 04:05:00,34.6,32.4,29.80,North,0,0.2,0.4,92,0.00,,,0.00,WUHU216HW,2013-03-23 09:05:00,
2013-03-23 04:10:00,34.6,32.4,29.80,NE,45,0.2,0.4,92,0.00,,,0.00,WUHU216HW,2013-03-23 09:10:00,
2013-03-23 04:15:00,34.6,32.4,29.80,NE,45,0.0,0.2,92,0.00,,,0.00,WUHU216HW,2013-03-23 09:15:00,
2013-03-23 04:20:00,34.6,32.4,29.80,North,0,0.0,0.0,92,0.00,,,0.00,WUHU216HW,2013-03-23 09:20:00,
2013-03-23 04:25:00,34.6,32.4,29.80,North,0,0.0,0.0,92,0.00,,,0.00,WUHU216HW,2013-03-23 09:25:00,
2013-03-23 04:30:00,34.6,32.4,29.80,NNE,23,0.0,0.0,92,0.00,,,0.00,WUHU216HW,2013-03-23 09:30:00,
2013-03-23 04:35:00,34.6,32.4,29.80,East,90,0.0,0.2,92,0.00,,,0.00,WUHU216HW,2013-03-23 09:35:00,
2013-03-23 04:40:00,34.6,32.4,29.80,East,90,0.0,0.2,92,0.00,,,0.00,WUHU216HW,2013-03-23 09:40:00,
2013-03-23 04:45:00,34.6,32.7,29.80,ESE,113,0.0,0.4,93,0.00,,,0.00,WUHU216HW,2013-03-23 09:45:00,
2013-03-23 04:50:00,34.6,32.7,29.80,ESE,113,0.2,0.4,93,0.00,,,0.00,WUHU216HW,2013-03-23 09:50:00,
2013-03-23 04:55:00,34.6,32.7,29.80,SE,128,0.3,0.4,93,0.00,,,0.00,WUHU216HW,2013-03-23 09:55:00,
2013-03-23 05:00:00,34.6,32.7,29.80,East,90,0.0,0.7,93,0.00,,,0.00,WUHU216HW,2013-03-23 10:00:00,
2013-03-23 05:05:00,34.6,32.7,29.80,ESE,113,0.0,0.7,93,0.00,,,0.00,WUHU216HW,2013-03-23 10:05:00,
2013-03-23 05:10:00,34.6,32.7,29.80,SE,135,0.4,1.1,93,0.00,,,0.00,WUHU216HW,2013-03-23 10:10:00,
2013-03-23 05:15:00,34.6,32.7,29.80,East,90,0.2,1.1,93,0.00,,,0.00,WUHU216HW,2013-03-23 10:15:00,
2013-03-23 05:20:00,34.6,32.7,29.80,SE,135,0.4,0.4,93,0.00,,,0.00,WUHU216HW,2013-03-23 10:20:00,
2013-03-23 05:25:00,34.6,32.7,29.80,NE,45,0.3,0.7,93,0.00,,,0.00,WUHU216HW,2013-03-23 10:25:00,
2013-03-23 05:30:00,34.6,32.7,29.81,ESE,113,0.0,0.7,93,0.00,,,0.00,WUHU216HW,2013-03-23 10:30:00,
2013-03-23 05:35:00,34.6,32.7,29.81,ESE,113,0.4,0.4,93,0.00,,,0.00,WUHU216HW,2013-03-23 10:35:00,
2013-03-23 05:40:00,34.6,32.7,29.80,East,90,0.0,0.4,93,0.00,,,0.00,WUHU216HW,2013-03-23 10:40:00,
2013-03-23 05:45:00,34.6,32.7,29.80,ENE,68,0.0,0.4,93,0.00,,,0.00,WUHU216HW,2013-03-23 10:45:00,
2013-03-23 05:50:00,34.6,32.7,29.80,ESE,113,0.4,0.4,93,0.00,,,0.00,WUHU216HW,2013-03-23 10:50:00,
2013-03-23 05:55:00,34.6,32.7,29.81,SE,135,0.4,0.7,93,0.00,,,0.00,WUHU216HW,2013-03-23 10:55:00,
2013-03-23 06:00:00,34.6,32.7,29.81,SE,135,0.0,0.7,93,0.00,,,0.00,WUHU216HW,2013-03-23 11:00:00,
2013-03-23 06:05:00,34.6,32.7,29.81,ENE,68,0.6,0.7,93,0.00,,,0.00,WUHU216HW,2013-03-23 11:05:00,
2013-03-23 06:10:00,34.6,32.4,29.81,ESE,113,0.2,1.1,92,0.00,,,0.00,WUHU216HW,2013-03-23 11:10:00,
2013-03-23 06:15:00,34.6,32.4,29.81,SE,135,0.1,1.1,92,0.00,,,0.00,WUHU216HW,2013-03-23 11:15:00,
2013-03-23 06:20:00,34.6,32.4,29.81,SE,135,0.2,1.1,92,0.02,,,0.02,WUHU216HW,2013-03-23 11:20:00,
2013-03-23 06:25:00,34.7,32.6,29.82,SE,135,0.0,0.4,92,0.02,,,0.02,WUHU216HW,2013-03-23 11:25:00,
2013-03-23 06:30:00,34.7,32.6,29.82,ESE,113,0.2,0.4,92,0.02,,,0.02,WUHU216HW,2013-03-23 11:30:00,
2013-03-23 06:35:00,34.7,32.3,29.82,East,90,0.2,0.4,91,0.02,,,0.02,WUHU216HW,2013-03-23 11:35:00,
2013-03-23 06:40:00,34.7,32.3,29.82,SE,128,0.3,0.4,91,0.02,,,0.02,WUHU216HW,2013-03-23 11:40:00,
2013-03-23 06:45:00,34.7,32.3,29.82,ESE,120,0.3,0.4,91,0.02,,,0.02,WUHU216HW,2013-03-23 11:45:00,
2013-03-23 06:50:00,34.7,32.3,29.82,ESE,113,0.4,0.4,91,0.02,,,0.02,WUHU216HW,2013-03-23 11:50:00,
2013-03-23 06:55:00,34.7,32.3,29.82,ENE,68,0.2,0.4,91,0.02,,,0.02,WUHU216HW,2013-03-23 11:55:00,
2013-03-23 07:00:00,34.7,32.0,29.82,SE,135,0.2,0.2,90,0.02,,,0.02,WUHU216HW,2013-03-23 12:00:00,
2013-03-23 07:05:00,34.7,32.0,29.82,East,90,1.1,1.1,90,0.02,,,0.02,WUHU216HW,2013-03-23 12:05:00,
2013-03-23 07:10:00,34.9,32.2,29.82,ESE,113,0.3,1.1,90,0.02,,,0.02,WUHU216HW,2013-03-23 12:10:00,
2013-03-23 07:15:00,34.9,32.2,29.82,East,90,0.1,0.4,90,0.02,,,0.02,WUHU216HW,2013-03-23 12:15:00,
2013-03-23 07:20:00,34.9,32.2,29.82,SE,135,0.2,0.4,90,0.00,,,0.02,WUHU216HW,2013-03-23 12:20:00,
2013-03-23 07:25:00,34.9,32.2,29.82,SSE,158,0.4,0.9,90,0.00,,,0.02,WUHU216HW,2013-03-23 12:25:00,
2013-03-23 07:30:00,34.9,32.2,29.82,ESE,113,0.3,0.9,90,0.00,,,0.02,WUHU216HW,2013-03-23 12:30:00,
2013-03-23 07:35:00,34.9,32.2,29.82,SE,135,0.7,0.9,90,0.00,,,0.02,WUHU216HW,2013-03-23 12:35:00,
2013-03-23 07:40:00,34.9,32.2,29.82,SE,130,0.4,1.1,90,0.00,,,0.02,WUHU216HW,2013-03-23 12:40:00,
2013-03-23 07:45:00,34.9,32.2,29.82,SSE,158,0.2,1.1,90,0.00,,,0.02,WUHU216HW,2013-03-23 12:45:00,
2013-03-23 07:50:00,34.9,32.2,29.82,NE,45,0.4,0.9,90,0.00,,,0.02,WUHU216HW,2013-03-23 12:50:00,
2013-03-23 07:56:00,35.1,32.4,29.81,ENE,68,0.4,0.7,90,0.00,,,0.02,WUHU216HW,2013-03-23 12:56:00,
2013-03-23 08:01:00,34.9,32.2,29.81,SE,138,0.4,1.1,90,0.00,,,0.02,WUHU216HW,2013-03-23 13:01:00,
2013-03-23 08:06:00,35.1,32.4,29.81,SE,142,0.3,1.1,90,0.00,,,0.02,WUHU216HW,2013-03-23 13:06:00,
2013-03-23 08:11:00,35.1,32.4,29.82,SE,135,0.4,0.7,90,0.00,,,0.02,WUHU216HW,2013-03-23 13:11:00,
2013-03-23 08:16:00,35.3,32.3,29.82,SE,127,1.0,1.3,89,0.00,,,0.02,WUHU216HW,2013-03-23 13:16:00,
2013-03-23 08:21:00,35.3,32.3,29.82,South,180,0.4,1.3,89,0.00,,,0.02,WUHU216HW,2013-03-23 13:21:00,
2013-03-23 08:26:00,35.3,32.3,29.82,ESE,113,0.4,0.4,89,0.00,,,0.02,WUHU216HW,2013-03-23 13:26:00,
2013-03-23 08:31:00,35.5,32.5,29.82,SSE,148,0.8,1.3,89,0.00,,,0.02,WUHU216HW,2013-03-23 13:31:00,
2013-03-23 08:36:00,35.6,32.7,29.82,SE,135,0.6,1.3,89,0.00,,,0.02,WUHU216HW,2013-03-23 13:36:00,
2013-03-23 08:41:00,35.6,32.7,29.83,ESE,113,0.4,0.7,89,0.00,,,0.02,WUHU216HW,2013-03-23 13:41:00,
2013-03-23 08:46:00,35.6,32.7,29.83,East,90,0.3,0.7,89,0.00,,,0.02,WUHU216HW,2013-03-23 13:46:00,
2013-03-23 08:51:00,35.6,32.4,29.83,ESE,113,0.7,0.7,88,0.00,,,0.02,WUHU216HW,2013-03-23 13:51:00,
2013-03-23 08:56:00,35.8,32.6,29.82,ESE,108,0.4,0.7,88,0.00,,,0.02,WUHU216HW,2013-03-23 13:56:00,
2013-03-23 09:01:00,36.0,32.8,29.82,South,180,0.4,0.7,88,0.00,,,0.02,WUHU216HW,2013-03-23 14:01:00,
2013-03-23 09:06:00,36.2,32.6,29.83,SE,135,0.7,0.7,87,0.00,,,0.02,WUHU216HW,2013-03-23 14:06:00,
2013-03-23 09:11:00,36.0,32.4,29.83,SE,130,0.4,0.7,87,0.00,,,0.02,WUHU216HW,2013-03-23 14:11:00,
2013-03-23 09:16:00,36.2,32.6,29.83,SE,135,0.0,0.7,87,0.00,,,0.02,WUHU216HW,2013-03-23 14:16:00,
2013-03-23 09:21:00,36.4,32.8,29.83,ESE,113,0.4,1.1,87,0.00,,,0.02,WUHU216HW,2013-03-23 14:21:00,
2013-03-23 09:26:00,36.4,32.8,29.83,SE,135,1.1,1.1,87,0.00,,,0.02,WUHU216HW,2013-03-23 14:26:00,
2013-03-23 09:31:00,36.4,32.8,29.82,SE,135,1.3,1.3,87,0.00,,,0.02,WUHU216HW,2013-03-23 14:31:00,
2013-03-23 09:36:00,36.4,33.1,29.83,SE,135,0.8,2.7,88,0.00,,,0.02,WUHU216HW,2013-03-23 14:36:00,
2013-03-23 09:41:00,36.5,33.3,29.83,SE,135,0.2,2.7,88,0.00,,,0.02,WUHU216HW,2013-03-23 14:41:00,
2013-03-23 09:46:00,36.7,33.5,29.83,ESE,113,0.4,0.9,88,0.00,,,0.02,WUHU216HW,2013-03-23 14:46:00,
2013-03-23 09:51:00,36.7,33.8,29.83,East,90,1.8,1.8,89,0.00,,,0.02,WUHU216HW,2013-03-23 14:51:00,
2013-03-23 09:56:00,36.7,33.8,29.83,SE,135,0.4,1.8,89,0.00,,,0.02,WUHU216HW,2013-03-23 14:56:00,
2013-03-23 10:01:00,36.7,33.8,29.83,ESE,113,1.3,1.3,89,0.00,,,0.02,WUHU216HW,2013-03-23 15:01:00,
2013-03-23 10:07:00,36.7,33.8,29.83,East,90,0.2,1.3,89,0.00,,,0.02,WUHU216HW,2013-03-23 15:07:00,
2013-03-23 10:11:00,36.7,33.8,29.82,ENE,68,0.4,0.7,89,0.00,,,0.02,WUHU216HW,2013-03-23 15:11:00,
2013-03-23 10:17:00,37.1,34.1,29.83,ESE,113,0.2,0.9,89,0.00,,,0.02,WUHU216HW,2013-03-23 15:17:00,
2013-03-23 10:22:00,37.1,33.9,29.82,North,0,0.2,0.4,88,0.00,,,0.02,WUHU216HW,2013-03-23 15:22:00,
2013-03-23 10:27:00,37.3,34.0,29.83,ENE,68,0.0,0.4,88,0.00,,,0.02,WUHU216HW,2013-03-23 15:27:00,
2013-03-23 10:32:00,37.4,34.2,29.82,SE,135,0.2,0.4,88,0.00,,,0.02,WUHU216HW,2013-03-23 15:32:00,
2013-03-23 10:37:00,37.4,34.2,29.82,East,90,0.4,0.4,88,0.00,,,0.02,WUHU216HW,2013-03-23 15:37:00,
2013-03-23 10:42:00,37.4,34.2,29.83,NNE,23,0.9,0.9,88,0.00,,,0.02,WUHU216HW,2013-03-23 15:42:00,
2013-03-23 10:47:00,37.6,34.0,29.82,ESE,113,0.2,0.9,87,0.00,,,0.02,WUHU216HW,2013-03-23 15:47:00,
2013-03-23 10:52:00,37.8,34.2,29.82,ESE,113,0.4,1.8,87,0.00,,,0.02,WUHU216HW,2013-03-23 15:52:00,
2013-03-23 10:57:00,37.8,34.2,29.82,North,0,0.4,1.8,87,0.00,,,0.02,WUHU216HW,2013-03-23 15:57:00,
2013-03-23 11:02:00,37.8,34.2,29.82,East,90,1.1,1.1,87,0.00,,,0.02,WUHU216HW,2013-03-23 16:02:00,
2013-03-23 11:07:00,38.0,34.4,29.83,SE,135,1.1,1.8,87,0.00,,,0.02,WUHU216HW,2013-03-23 16:07:00,
2013-03-23 11:12:00,38.2,34.6,29.82,ESE,113,0.7,1.8,87,0.00,,,0.02,WUHU216HW,2013-03-23 16:12:00,
2013-03-23 11:17:00,38.2,34.6,29.81,ESE,107,0.8,2.0,87,0.00,,,0.02,WUHU216HW,2013-03-23 16:17:00,
2013-03-23 11:22:00,38.3,34.5,29.81,SSE,162,1.3,2.2,86,0.00,,,0.02,WUHU216HW,2013-03-23 16:22:00,
2013-03-23 11:27:00,38.3,34.5,29.80,ESE,113,1.1,2.2,86,0.00,,,0.02,WUHU216HW,2013-03-23 16:27:00,
2013-03-23 11:32:00,38.5,34.7,29.80,South,180,0.7,1.1,86,0.00,,,0.02,WUHU216HW,2013-03-23 16:32:00,
2013-03-23 11:37:00,38.7,34.8,29.80,SE,135,0.0,1.3,86,0.00,,,0.02,WUHU216HW,2013-03-23 16:37:00,
2013-03-23 11:42:00,38.9,35.0,29.80,East,90,0.0,1.3,86,0.00,,,0.02,WUHU216HW,2013-03-23 16:42:00,
2013-03-23 11:47:00,39.1,34.9,29.80,ESE,113,0.7,1.1,85,0.00,,,0.02,WUHU216HW,2013-03-23 16:47:00,
2013-03-23 11:52:00,38.9,34.5,29.80,SSE,158,2.5,2.5,84,0.00,,,0.02,WUHU216HW,2013-03-23 16:52:00,
2013-03-23 11:57:00,39.2,34.8,29.80,SE,135,0.3,2.5,84,0.00,,,0.02,WUHU216HW,2013-03-23 16:57:00,
2013-03-23 12:02:00,39.2,34.8,29.80,East,90,0.1,1.3,84,0.00,,,0.02,WUHU216HW,2013-03-23 17:02:00,
2013-03-23 12:07:00,39.6,35.2,29.80,ESE,113,0.2,1.3,84,0.00,,,0.02,WUHU216HW,2013-03-23 17:07:00,
2013-03-23 12:12:00,39.8,35.3,29.80,East,90,0.2,1.1,84,0.00,,,0.02,WUHU216HW,2013-03-23 17:12:00,
2013-03-23 12:17:00,40.0,35.2,29.80,NE,55,0.6,1.1,83,0.00,,,0.02,WUHU216HW,2013-03-23 17:17:00,
2013-03-23 12:22:00,40.0,34.9,29.80,ESE,113,1.8,1.8,82,0.00,,,0.02,WUHU216HW,2013-03-23 17:22:00,
2013-03-23 12:27:00,40.0,34.9,29.80,ENE,68,1.1,1.8,82,0.00,,,0.02,WUHU216HW,2013-03-23 17:27:00,
2013-03-23 12:32:00,40.1,35.1,29.80,NNW,338,0.2,1.8,82,0.00,,,0.02,WUHU216HW,2013-03-23 17:32:00,
2013-03-23 12:37:00,40.3,35.2,29.80,NNE,15,0.3,0.7,82,0.00,,,0.02,WUHU216HW,2013-03-23 17:37:00,
2013-03-23 12:42:00,40.5,35.4,29.80,NE,45,0.4,1.1,82,0.00,,,0.02,WUHU216HW,2013-03-23 17:42:00,
2013-03-23 12:47:00,40.7,35.6,29.79,NE,45,0.9,1.1,82,0.00,,,0.02,WUHU216HW,2013-03-23 17:47:00,
2013-03-23 12:52:00,40.7,35.6,29.79,NNE,23,0.4,1.1,82,0.00,,,0.02,WUHU216HW,2013-03-23 17:52:00,
2013-03-23 12:57:00,40.9,35.7,29.80,ENE,68,0.4,1.1,82,0.00,,,0.02,WUHU216HW,2013-03-23 17:57:00,
2013-03-23 13:03:00,41.0,35.9,29.79,North,0,0.4,1.8,82,0.00,,,0.02,WUHU216HW,2013-03-23 18:03:00,
2013-03-23 13:08:00,41.0,35.9,29.79,NNE,30,0.3,2.7,82,0.00,,,0.02,WUHU216HW,2013-03-23 18:08:00,
2013-03-23 13:13:00,41.2,35.7,29.79,SE,135,0.6,2.7,81,0.00,,,0.02,WUHU216HW,2013-03-23 18:13:00,
2013-03-23 13:18:00,41.0,35.6,29.78,NNE,26,0.7,1.8,81,0.00,,,0.02,WUHU216HW,2013-03-23 18:18:00,
2013-03-23 13:23:00,41.0,35.6,29.78,East,79,0.6,2.0,81,0.00,,,0.02,WUHU216HW,2013-03-23 18:23:00,
2013-03-23 13:28:00,41.0,35.6,29.78,SE,126,0.4,2.0,81,0.00,,,0.02,WUHU216HW,2013-03-23 18:28:00,
2013-03-23 13:33:00,40.9,35.5,29.78,SSE,158,0.1,2.0,81,0.00,,,0.02,WUHU216HW,2013-03-23 18:33:00,
2013-03-23 13:38:00,40.9,35.5,29.78,East,79,0.8,1.6,81,0.00,,,0.02,WUHU216HW,2013-03-23 18:38:00,
2013-03-23 13:43:00,40.9,35.7,29.78,NNE,27,1.0,1.6,82,0.00,,,0.02,WUHU216HW,2013-03-23 18:43:00,
2013-03-23 13:48:00,40.9,35.7,29.77,NNE,23,4.3,4.3,82,0.00,,,0.02,WUHU216HW,2013-03-23 18:48:00,
2013-03-23 13:53:00,40.9,35.7,29.77,ESE,113,1.8,4.3,82,0.00,,,0.02,WUHU216HW,2013-03-23 18:53:00,
2013-03-23 13:58:00,40.9,35.7,29.76,East,90,1.6,3.6,82,0.00,,,0.02,WUHU216HW,2013-03-23 18:58:00,
2013-03-23 14:03:00,41.0,35.9,29.77,ESE,113,0.9,1.6,82,0.00,,,0.02,WUHU216HW,2013-03-23 19:03:00,
2013-03-23 14:08:00,40.9,35.7,29.77,SE,135,3.6,3.6,82,0.00,,,0.02,WUHU216HW,2013-03-23 19:08:00,
2013-03-23 14:13:00,40.7,35.6,29.77,SE,129,0.8,3.6,82,0.00,,,0.02,WUHU216HW,2013-03-23 19:13:00,
2013-03-23 14:18:00,40.7,35.8,29.77,SSW,203,1.1,1.1,83,0.00,,,0.02,WUHU216HW,2013-03-23 19:18:00,
2013-03-23 14:23:00,40.7,36.2,29.76,East,90,0.4,1.1,84,0.00,,,0.02,WUHU216HW,2013-03-23 19:23:00,
2013-03-23 14:28:00,40.7,36.5,29.75,South,180,0.4,1.1,85,0.00,,,0.02,WUHU216HW,2013-03-23 19:28:00,
2013-03-23 14:33:00,40.5,36.6,29.75,SE,135,0.9,1.1,86,0.00,,,0.02,WUHU216HW,2013-03-23 19:33:00,
2013-03-23 14:38:00,40.1,36.5,29.75,ESE,113,0.7,1.1,87,0.00,,,0.02,WUHU216HW,2013-03-23 19:38:00,
2013-03-23 14:43:00,40.0,36.6,29.75,SSE,158,0.9,1.1,88,0.00,,,0.02,WUHU216HW,2013-03-23 19:43:00,
2013-03-23 14:48:00,39.8,36.8,29.74,SE,135,0.4,1.8,89,0.00,,,0.02,WUHU216HW,2013-03-23 19:48:00,
2013-03-23 14:53:00,39.6,36.9,29.74,SSE,158,0.2,2.0,90,0.00,,,0.02,WUHU216HW,2013-03-23 19:53:00,
2013-03-23 14:58:00,39.8,37.1,29.74,SE,135,0.1,2.0,90,0.02,,,0.04,WUHU216HW,2013-03-23 19:58:00,
2013-03-23 15:03:00,39.8,37.1,29.74,ESE,113,0.1,0.4,90,0.02,,,0.04,WUHU216HW,2013-03-23 20:03:00,
2013-03-23 15:08:00,39.6,37.2,29.74,ESE,113,1.1,1.8,91,0.02,,,0.04,WUHU216HW,2013-03-23 20:08:00,
2013-03-23 15:13:00,39.6,37.2,29.73,ESE,118,0.8,2.0,91,0.02,,,0.04,WUHU216HW,2013-03-23 20:13:00,
2013-03-23 15:18:00,39.6,36.9,29.73,ENE,72,1.9,3.4,90,0.02,,,0.04,WUHU216HW,2013-03-23 20:18:00,
2013-03-23 15:23:00,39.6,37.2,29.73,ESE,113,0.7,3.4,91,0.02,,,0.04,WUHU216HW,2013-03-23 20:23:00,
2013-03-23 15:28:00,39.6,37.2,29.73,SE,135,0.9,2.2,91,0.02,,,0.04,WUHU216HW,2013-03-23 20:28:00,
2013-03-23 15:33:00,39.2,36.8,29.72,ENE,60,1.0,2.2,91,0.02,,,0.04,WUHU216HW,2013-03-23 20:33:00,
2013-03-23 15:38:00,39.2,36.8,29.72,SE,128,0.6,2.9,91,0.02,,,0.04,WUHU216HW,2013-03-23 20:38:00,
2013-03-23 15:43:00,39.2,36.8,29.72,ESE,116,2.5,4.3,91,0.03,,,0.05,WUHU216HW,2013-03-23 20:43:00,
2013-03-23 15:48:00,39.1,36.6,29.72,ESE,120,0.6,4.3,91,0.03,,,0.05,WUHU216HW,2013-03-23 20:48:00,
2013-03-23 15:53:00,39.1,36.6,29.71,SE,141,1.0,1.6,91,0.03,,,0.05,WUHU216HW,2013-03-23 20:53:00,
2013-03-23 15:58:00,39.2,36.8,29.71,SE,135,0.6,2.0,91,0.01,,,0.05,WUHU216HW,2013-03-23 20:58:00,
2013-03-23 16:03:00,39.1,36.4,29.71,ESE,120,1.0,2.0,90,0.01,,,0.05,WUHU216HW,2013-03-23 21:03:00,
2013-03-23 16:08:00,39.1,36.6,29.70,SSE,159,1.7,5.6,91,0.01,,,0.05,WUHU216HW,2013-03-23 21:08:00,
2013-03-23 16:13:00,39.1,36.6,29.70,SSE,158,1.3,5.6,91,0.01,,,0.05,WUHU216HW,2013-03-23 21:13:00,
2013-03-23 16:18:00,39.1,36.6,29.70,SE,135,1.3,4.3,91,0.01,,,0.05,WUHU216HW,2013-03-23 21:18:00,
2013-03-23 16:23:00,39.1,36.6,29.70,ESE,120,1.7,2.2,91,0.01,,,0.05,WUHU216HW,2013-03-23 21:23:00,
2013-03-23 16:28:00,39.2,36.8,29.70,ESE,113,0.4,2.5,91,0.01,,,0.05,WUHU216HW,2013-03-23 21:28:00,
2013-03-23 16:33:00,39.2,36.8,29.70,SE,135,2.4,4.7,91,0.01,,,0.05,WUHU216HW,2013-03-23 21:33:00,
2013-03-23 16:38:00,39.2,36.8,29.70,East,94,1.1,4.7,91,0.01,,,0.05,WUHU216HW,2013-03-23 21:38:00,
2013-03-23 16:43:00,39.2,36.8,29.70,ESE,121,1.5,2.9,91,0.00,,,0.05,WUHU216HW,2013-03-23 21:43:00,
2013-03-23 16:48:00,39.2,36.5,29.70,ESE,113,2.2,2.2,90,0.00,,,0.05,WUHU216HW,2013-03-23 21:48:00,
2013-03-23 16:53:00,39.4,37.0,29.70,ESE,113,1.1,2.2,91,0.00,,,0.05,WUHU216HW,2013-03-23 21:53:00,
2013-03-23 16:58:00,39.4,36.7,29.70,ESE,113,2.5,4.0,90,0.00,,,0.05,WUHU216HW,2013-03-23 21:58:00,
2013-03-23 17:03:00,39.6,36.9,29.69,SE,139,2.3,4.0,90,0.00,,,0.05,WUHU216HW,2013-03-23 22:03:00,
2013-03-23 17:08:00,39.6,36.9,29.69,ESE,122,2.5,4.0,90,0.00,,,0.05,WUHU216HW,2013-03-23 22:08:00,
2013-03-23 17:13:00,39.8,37.1,29.69,SE,135,1.2,4.0,90,0.00,,,0.05,WUHU216HW,2013-03-23 22:13:00,
2013-03-23 17:18:00,39.8,37.1,29.69,ESE,121,2.3,2.9,90,0.00,,,0.05,WUHU216HW,2013-03-23 22:18:00,
2013-03-23 17:23:00,40.0,37.3,29.69,ESE,123,2.7,2.9,90,0.00,,,0.05,WUHU216HW,2013-03-23 22:23:00,
2013-03-23 17:28:00,40.0,37.3,29.68,SE,135,3.1,3.1,90,0.00,,,0.05,WUHU216HW,2013-03-23 22:28:00,
2013-03-23 17:33:00,40.0,37.3,29.68,SE,128,0.3,3.1,90,0.00,,,0.05,WUHU216HW,2013-03-23 22:33:00,
2013-03-23 17:38:00,40.0,37.3,29.68,ESE,113,0.9,1.8,90,0.00,,,0.05,WUHU216HW,2013-03-23 22:38:00,
2013-03-23 17:43:00,40.0,37.3,29.68,ESE,113,1.8,4.0,90,0.00,,,0.05,WUHU216HW,2013-03-23 22:43:00,
2013-03-23 17:48:00,39.8,37.1,29.68,East,92,2.2,4.0,90,0.00,,,0.05,WUHU216HW,2013-03-23 22:48:00,
2013-03-23 17:53:00,39.8,37.1,29.68,NE,45,0.4,4.0,90,0.00,,,0.05,WUHU216HW,2013-03-23 22:53:00,
2013-03-23 17:58:00,39.8,37.4,29.69,ESE,113,1.5,3.1,91,0.00,,,0.05,WUHU216HW,2013-03-23 22:58:00,
2013-03-23 18:03:00,39.6,37.2,29.69,North,0,0.3,1.8,91,0.00,,,0.05,WUHU216HW,2013-03-23 23:03:00,
2013-03-23 18:08:00,39.6,37.2,29.69,North,0,1.2,1.6,91,0.00,,,0.05,WUHU216HW,2013-03-23 23:08:00,
2013-03-23 18:13:00,39.6,36.9,29.69,North,0,1.8,1.8,90,0.00,,,0.05,WUHU216HW,2013-03-23 23:13:00,
2013-03-23 18:18:00,39.6,36.9,29.69,North,0,1.1,1.8,90,0.00,,,0.05,WUHU216HW,2013-03-23 23:18:00,
2013-03-23 18:23:00,39.6,36.9,29.68,NNE,23,1.0,1.3,90,0.00,,,0.05,WUHU216HW,2013-03-23 23:23:00,
2013-03-23 18:28:00,39.6,36.9,29.68,North,0,1.8,2.0,90,0.00,,,0.05,WUHU216HW,2013-03-23 23:28:00,
2013-03-23 18:33:00,39.6,36.9,29.68,NNE,23,1.8,2.0,90,0.00,,,0.05,WUHU216HW,2013-03-23 23:33:00,
2013-03-23 18:38:00,39.6,37.2,29.68,NNE,23,0.2,1.8,91,0.00,,,0.05,WUHU216HW,2013-03-23 23:38:00,
2013-03-23 18:43:00,39.6,37.2,29.68,NNW,338,1.1,1.1,91,0.00,,,0.05,WUHU216HW,2013-03-23 23:43:00,
2013-03-23 18:48:00,39.6,37.2,29.67,North,0,1.1,1.1,91,0.00,,,0.05,WUHU216HW,2013-03-23 23:48:00,
2013-03-23 18:53:00,39.6,37.2,29.68,North,0,2.2,2.2,91,0.00,,,0.05,WUHU216HW,2013-03-23 23:53:00,
2013-03-23 18:58:00,39.6,37.2,29.67,NNE,17,0.8,2.2,91,0.00,,,0.05,WUHU216HW,2013-03-23 23:58:00,
2013-03-23 19:03:00,39.6,37.2,29.68,NNE,23,1.5,2.2,91,0.00,,,0.05,WUHU216HW,2013-03-24 00:03:00,
2013-03-23 19:08:00,39.6,37.2,29.67,NNE,15,1.3,2.2,91,0.00,,,0.05,WUHU216HW,2013-03-24 00:08:00,
2013-03-23 19:13:00,39.6,37.2,29.67,North,0,1.1,1.8,91,0.01,,,0.06,WUHU216HW,2013-03-24 00:13:00,
2013-03-23 19:18:00,39.6,37.2,29.67,North,0,0.9,1.8,91,0.01,,,0.06,WUHU216HW,2013-03-24 00:18:00,
2013-03-23 19:23:00,39.6,37.2,29.67,North,0,0.7,2.5,91,0.01,,,0.06,WUHU216HW,2013-03-24 00:23:00,
2013-03-23 19:28:00,39.6,37.2,29.66,North,0,2.5,2.5,91,0.02,,,0.07,WUHU216HW,2013-03-24 00:28:00,
2013-03-23 19:33:00,39.6,37.4,29.66,NE,45,0.1,2.5,92,0.02,,,0.07,WUHU216HW,2013-03-24 00:33:00,
2013-03-23 19:38:00,39.6,37.4,29.65,SE,132,0.7,1.1,92,0.02,,,0.07,WUHU216HW,2013-03-24 00:38:00,
2013-03-23 19:43:00,39.8,37.9,29.65,NNE,23,0.4,1.1,93,0.02,,,0.07,WUHU216HW,2013-03-24 00:43:00,
2013-03-23 19:48:00,39.8,37.9,29.65,East,90,2.9,2.9,93,0.02,,,0.07,WUHU216HW,2013-03-24 00:48:00,
2013-03-23 19:53:00,40.0,38.1,29.65,SSE,158,0.2,2.9,93,0.02,,,0.07,WUHU216HW,2013-03-24 00:53:00,
2013-03-23 19:58:00,40.0,38.3,29.65,East,83,0.3,0.9,94,0.02,,,0.07,WUHU216HW,2013-03-24 00:58:00,
2013-03-23 20:03:00,40.1,38.3,29.65,ENE,68,0.1,1.3,93,0.02,,,0.07,WUHU216HW,2013-03-24 01:03:00,
2013-03-23 20:08:00,40.1,38.3,29.65,NNW,338,0.2,1.3,93,0.02,,,0.07,WUHU216HW,2013-03-24 01:08:00,
2013-03-23 20:13:00,40.1,38.3,29.65,ESE,113,0.4,0.9,93,0.01,,,0.07,WUHU216HW,2013-03-24 01:13:00,
2013-03-23 20:18:00,40.3,38.4,29.66,ESE,113,0.2,1.1,93,0.01,,,0.07,WUHU216HW,2013-03-24 01:18:00,
2013-03-23 20:23:00,40.3,38.4,29.66,ESE,113,0.3,1.1,93,0.00,,,0.07,WUHU216HW,2013-03-24 01:23:00,
2013-03-23 20:28:00,40.3,38.4,29.67,East,90,0.2,0.9,93,0.00,,,0.07,WUHU216HW,2013-03-24 01:28:00,
2013-03-23 20:33:00,40.3,38.4,29.67,SE,135,0.4,1.6,93,0.00,,,0.07,WUHU216HW,2013-03-24 01:33:00,
2013-03-23 20:38:00,40.3,38.4,29.66,SSE,158,0.2,1.6,93,0.00,,,0.07,WUHU216HW,2013-03-24 01:38:00,
2013-03-23 20:43:00,40.3,38.7,29.66,ESE,113,0.4,0.9,94,0.00,,,0.07,WUHU216HW,2013-03-24 01:43:00,
2013-03-23 20:48:00,40.3,38.7,29.67,SE,125,1.0,1.1,94,0.00,,,0.07,WUHU216HW,2013-03-24 01:48:00,
2013-03-23 20:53:00,40.3,38.7,29.67,East,90,0.4,1.1,94,0.00,,,0.07,WUHU216HW,2013-03-24 01:53:00,
2013-03-23 20:58:00,40.3,38.7,29.66,ESE,113,0.4,0.4,94,0.00,,,0.07,WUHU216HW,2013-03-24 01:58:00,
2013-03-23 21:03:00,40.3,38.7,29.67,SE,135,0.9,0.9,94,0.01,,,0.08,WUHU216HW,2013-03-24 02:03:00,
2013-03-23 21:08:00,40.3,38.7,29.67,ESE,113,0.4,0.9,94,0.01,,,0.08,WUHU216HW,2013-03-24 02:08:00,
2013-03-23 21:13:00,40.3,38.7,29.67,ESE,113,0.2,0.9,94,0.01,,,0.08,WUHU216HW,2013-03-24 02:13:00,
2013-03-23 21:18:00,40.3,38.4,29.68,ESE,113,0.4,0.9,93,0.01,,,0.08,WUHU216HW,2013-03-24 02:18:00,
2013-03-23 21:23:00,40.3,38.4,29.68,East,90,0.4,0.4,93,0.01,,,0.08,WUHU216HW,2013-03-24 02:23:00,
2013-03-23 21:28:00,40.3,38.4,29.69,SSE,158,0.0,0.4,93,0.01,,,0.08,WUHU216HW,2013-03-24 02:28:00,
2013-03-23 21:33:00,40.3,38.4,29.69,WSW,248,0.0,0.4,93,0.01,,,0.08,WUHU216HW,2013-03-24 02:33:00,
2013-03-23 21:38:00,40.3,38.4,29.69,North,0,0.4,0.4,93,0.01,,,0.08,WUHU216HW,2013-03-24 02:38:00,
2013-03-23 21:43:00,40.3,38.4,29.71,WNW,293,0.4,0.4,93,0.01,,,0.08,WUHU216HW,2013-03-24 02:43:00,
2013-03-23 21:48:00,40.3,38.4,29.71,WSW,248,0.6,0.9,93,0.02,,,0.09,WUHU216HW,2013-03-24 02:48:00,
2013-03-23 21:53:00,40.5,38.6,29.70,WSW,248,0.0,0.9,93,0.02,,,0.09,WUHU216HW,2013-03-24 02:53:00,
2013-03-23 21:58:00,40.3,38.4,29.70,East,90,1.1,1.1,93,0.04,,,0.11,WUHU216HW,2013-03-24 02:58:00,
2013-03-23 22:03:00,40.3,38.4,29.70,North,0,0.0,1.1,93,0.04,,,0.12,WUHU216HW,2013-03-24 03:03:00,
2013-03-23 22:08:00,40.3,38.4,29.69,North,8,0.6,0.7,93,0.04,,,0.12,WUHU216HW,2013-03-24 03:08:00,
2013-03-23 22:13:00,40.3,38.4,29.68,ENE,68,0.3,0.7,93,0.05,,,0.13,WUHU216HW,2013-03-24 03:13:00,
2013-03-23 22:18:00,40.7,39.1,29.67,SE,135,0.3,0.7,94,0.05,,,0.13,WUHU216HW,2013-03-24 03:18:00,
2013-03-23 22:23:00,40.7,39.1,29.67,SSE,158,0.7,1.1,94,0.05,,,0.13,WUHU216HW,2013-03-24 03:23:00,
2013-03-23 22:28:00,40.7,39.1,29.68,ESE,105,0.3,1.8,94,0.05,,,0.13,WUHU216HW,2013-03-24 03:28:00,
2013-03-23 22:33:00,40.7,39.1,29.68,SE,135,0.0,1.8,94,0.05,,,0.13,WUHU216HW,2013-03-24 03:33:00,
2013-03-23 22:38:00,40.7,39.1,29.69,SSE,158,0.4,0.7,94,0.06,,,0.14,WUHU216HW,2013-03-24 03:38:00,
2013-03-23 22:43:00,40.7,39.1,29.69,ENE,68,0.0,0.4,94,0.06,,,0.14,WUHU216HW,2013-03-24 03:43:00,
2013-03-23 22:48:00,40.7,39.1,29.70,NNE,23,0.1,0.4,94,0.05,,,0.14,WUHU216HW,2013-03-24 03:48:00,
2013-03-23 22:53:00,40.7,39.1,29.69,North,0,0.2,0.9,94,0.04,,,0.14,WUHU216HW,2013-03-24 03:53:00,
2013-03-23 22:58:00,40.7,39.1,29.70,NNW,338,0.9,2.5,94,0.02,,,0.14,WUHU216HW,2013-03-24 03:58:00,
2013-03-23 23:00:00,40.7,39.1,29.70,NNW,338,1.1,2.5,94,0.02,,,0.14,WUHU216HW,2013-03-24 04:00:00,
2013-03-23 23:05:00,40.7,39.1,29.70,North,0,0.7,1.1,94,0.02,,,0.14,WUHU216HW,2013-03-24 04:05:00,
2013-03-23 23:10:00,40.7,38.8,29.68,NNE,28,0.8,1.8,93,0.01,,,0.14,WUHU216HW,2013-03-24 04:10:00,
2013-03-23 23:15:00,40.7,39.1,29.68,North,0,1.1,1.8,94,0.01,,,0.14,WUHU216HW,2013-03-24 04:15:00,
2013-03-23 23:20:00,40.5,38.6,29.67,NNE,23,3.1,3.1,93,0.02,,,0.15,WUHU216HW,2013-03-24 04:20:00,
2013-03-23 23:25:00,40.5,38.6,29.66,North,0,1.1,3.1,93,0.02,,,0.15,WUHU216HW,2013-03-24 04:25:00,
2013-03-23 23:30:00,40.5,38.6,29.65,ENE,68,0.7,2.5,93,0.02,,,0.15,WUHU216HW,2013-03-24 04:30:00,
2013-03-23 23:35:00,40.5,38.6,29.65,NE,39,0.8,1.3,93,0.02,,,0.15,WUHU216HW,2013-03-24 04:35:00,
2013-03-23 23:40:00,40.5,38.6,29.64,North,0,1.1,1.1,93,0.01,,,0.15,WUHU216HW,2013-03-24 04:40:00,
2013-03-23 23:45:00,40.5,38.6,29.63,NNE,23,0.2,1.1,93,0.01,,,0.15,WUHU216HW,2013-03-24 04:45:00,
2013-03-23 23:50:00,40.5,38.6,29.62,ESE,113,0.2,0.7,93,0.01,,,0.15,WUHU216HW,2013-03-24 04:50:00,
2013-03-23 23:55:00,40.5,38.6,29.62,NNE,23,0.2,0.4,93,0.01,,,0.15,WUHU216HW,2013-03-24 04:55:00,